SL-12 R/B(AUX MOTOR), 13608

Orbit data source: Space-Track

SL-12 R/B(AUX MOTOR), 13608 is space debris originally from a launch on Tue, 12 Oct 1982 UTC launched from the Tyuratam Missile And Space Complex (TTMTR). Debris objects in space refer to the collection of defunct objects orbiting the Earth. Examples of debris include non-operational satellites, rocket bodies, and fragments generated from explosions, collisions, or faulty payload assembly.

Loading next visibility...
Identifier
13608, 1982-100F
Orbit
Active
Country
Flag of CISCIS
Related business
Manufacturer
NPO Energiya
Mission
Spacecraft
Bus & Motor
SOZ, Unknown motor
Mass
Wet unknown, ~60 kg dry
Launch date (UTC)
1982-10-12 (44 years ago)
Launch vehicle
Unknown
Launch site
Tyuratam Missile And Space Complex (TTMTR)
Object type
Payload
Rocket body
Debris
Shape & HBR
Unknown
Radar Cross Section
Medium (>0.1 m² and <1 m²)

Expand to show TLE details & history
Last TLE update: 1 day ago

TLE from 1 day ago
0 SL-12 R/B(AUX MOTOR)
1 13608U 82100F   26163.23087724  .00027090  00000-0  85594-3 0  9992
2 13608  52.0254 219.6903 3263031  38.7910 340.6993  8.88854923985847
Epoch: 2026-06-12T05:32Z
TLE epoch observation values (Epoch: 2026-06-12T05:32:27.793Z)
Latitude
-0.00009°
Longitude
-123.98887°
Altitude
632.912 km
Speed
8.558 km/s
True Right ascension
14h 38m 45s
True Declination
0° 00' 00"
Sunlit
Object was in full shadow at epoch
Visualization orbit readout
Latitude
Unknown
Longitude
Unknown
Altitude
Unknown
Speed
Unknown
Apparent Right ascension
Unknown
Apparent Declination
Unknown
Sunlit
N/A
Visualization observer readout
Local Sidereal Time
19:54:42
Azimuth
Unknown
Elevation
Unknown
Doppler factor
Unknown
Orbital elements
Apogee altitude
6,678.766 km
Perigee altitude
254.129 km
Semi-major axis
9,844.584 km
Eccentricity
0.3263
Inclination
52.0254°
RAAN
219.6903°
Arg. of periapsis
38.791°
True anomaly
321.29187°
Mean anomaly
340.6993°
Eccentric anomaly
331.89068°
Mean motion
2.22202 °/min
Orbital period
162.02 mins
BSTAR
0.00085594
Loading maneuver chart data...
Computing Atmospheric mass density...
Loading historical data...
Loading historical data...
Loading historical data...
Loading historical data...
Loading historical data...
Loading historical data...
Loading historical data...

Documentation

Showing up to 5 results
|